x

Destruction Island, Wa (desw1) Weather Station

2:00 - Wed 22nd Mar 2017 All times are PDT. -7 hours from GMT.

  • Wind
    30mph, 32mph gusts
  • Air Temp 47°f
  • Sea Pressure 1009.9mb
  • Destruction Island, Wa
  • Destruction Island, Wa

More Historic Weather Station data

Upgrade to MSW Pro to gain access to the past 30 days of data for over 8000 Wavebouys and Weather Stations around the globe.

Join Pro

Comparision Forecast

View Surf forecast
   
mer. 03/22 2:00 30 32 mph 1009.9mb 47f
1:00 29 31 mph 1008.9mb 47f
12:00 34 38 mph 1008.3mb 47f
11:00 29 32 mph 1007.7mb 47f
10:00 28 32 mph 1007mb 47f
9:00 29 32 mph 1006.7mb 48f
8:00 26 31 mph 1006mb 48f
7:00 24 29 mph 1005.6mb 49f
6:00 30 38 mph 1005.1mb 49f
5:00 32 43 mph 1004mb 49f
4:00 44 51 mph 1002.6mb 49f
3:00 18 23 mph 1002.7mb 49f
2:00 21 23 mph 1002.8mb 50f
1:00 20 22 mph 1003.7mb 49f
12:00 26 29 mph 1004.4mb 50f
mar. 03/21 11:00 33 36 mph 1004.2mb 51f
10:00 26 28 mph 1004mb 51f
9:00 23 25 mph 1004.1mb 51f
8:00 21 22 mph 1004.4mb 50f
7:00 24 26 mph 1004.7mb 50f
6:00 25 29 mph 1004.6mb 50f
5:00 26 30 mph 1004.9mb 50f
4:00 33 37 mph 1004.4mb 49f
3:00 36 39 mph 1004.5mb 50f
2:00 32 38 mph 1004.3mb 50f
1:00 36 40 mph 1004mb 52f
12:00 20 21 mph 1003.6mb 51f
11:00 30 33 mph 1003.1mb 52f
10:00 18 21 mph 1003.1mb 51f
9:00 25 29 mph 1002.8mb 51f
8:00 26 30 mph 1003.1mb 51f
7:00 28 30 mph 1003.6mb 51f
6:00 28 29 mph 1003.9mb 51f
5:00 21 25 mph 1004.2mb 50f
4:00 30 32 mph 1004.1mb 50f
3:00 13 14 mph 1004.8mb 50f
2:00 6 7 mph 1005.5mb 47f
1:00 6 7 mph 1006.3mb 47f
12:00 7 8 mph 1006.9mb 47f
lun. 03/20 11:00 10 11 mph 1007.6mb 47f
10:00 10
mph
1008.4mb 47f
9:00 8 9 mph 1009.3mb 47f
8:00 6
mph
1009.8mb 48f
7:00 3
mph
1010.1mb 48f
6:00 7
mph
1010.3mb 48f
5:00 7 8 mph 1010.8mb 48f
4:00 8
mph
1011.3mb 47f
3:00 1 2 mph 1011.9mb 46f
2:00 2 5 mph 1012.6mb 47f
1:00 6 7 mph 1012.7mb 49f
12:00 1 3 mph 1012.7mb 49f
11:00 7 8 mph 1013.2mb 46f
10:00 9 11 mph 1013.7mb 44f
9:00 10 11 mph 1013.8mb 41f
8:00 13 16 mph 1014.3mb 40f
7:00 13 14 mph 1014.7mb 40f
6:00 14 15 mph 1015.2mb 39f
5:00 15 16 mph 1016mb 40f
4:00 15 17 mph 1016.8mb 40f
3:00 14 17 mph 1017.7mb 40f
2:00 11 14 mph 1018.4mb 41f
1:00 15 17 mph 1018.9mb 41f
12:00 15 17 mph 1019.6mb 42f
dim. 03/19 11:00 14 16 mph 1020.4mb 43f
10:00 13 15 mph 1021mb 44f
9:00 9 14 mph 1021.4mb 45f
8:00 13 14 mph 1021.7mb 47f
7:00 18
mph
1022mb 48f
6:00 22 23 mph 1022.5mb 47f
5:00 23 25 mph 1023.2mb 46f
4:00 20 22 mph 1023.7mb 46f
3:00 15 16 mph 1024.5mb 46f
2:00 9 11 mph 1025mb 48f
1:00 6 7 mph 1025.8mb 46f
12:00 2 5 mph 1026.2mb 45f
11:00  -  1 mph 1026.3mb 45f
10:00 3 5 mph 1026mb 43f
9:00 7 8 mph 1025.8mb 40f
8:00 9 10 mph 1025.5mb 38f
7:00 10 11 mph 1025mb 39f
6:00 13 14 mph 1024.4mb 40f
5:00 6 8 mph 1023.9mb 39f
4:00 7 8 mph 1023.4mb 39f
3:00 8 10 mph 1023.2mb 40f
2:00 6 9 mph 1022.6mb 42f
1:00 14 16 mph 1022.3mb 43f
12:00 8 9 mph 1022.1mb 42f
sam. 03/18 11:00  -  1 mph 1021.7mb 42f